[[{"header":{"parameterUnit":"m.s-1","parameterCategory":2,"la1":30.2991,"la2":30.254,"lo1":-89.0895,"lo2":-89.0444,"dy":0.0017,"dx":0.0017,"nx":28,"ny":28,"refTime":"2025-12-10T03:00:00:Z","depth":"0","parameterNumber":2,"parameterNumberName":"U-component_of_CURRENTS"},"data":[0,0,0,0,0,0,0,0,0,0,0,0,0,0,0,0,0,0,0,0,0,0,0,0,0,0,0,0,0,0,0,0,0,0,0,0,0,0,0,0,0,0,0,0,0,0,0,0,0,0,0,0,0,0,0,0,0,0,0.5463,0.5464,0,0.5527,0.5527,0.5528,0.5587,0.5587,0.5588,0.5589,0.5582,0.5581,0.5581,0,0,0,0,0,0,0,0,0,0,0,0,0,0.5275,0.5279,0.5463,0.5464,0.5465,0.5526,0.5527,0.5528,0.5587,0.5588,0.5588,0.5589,0.5583,0.5582,0.5581,0,0,0,0,0,0,0,0,0,0,0,0,0,0.5351,0.5281,0.5463,0.5501,0.5505,0.5526,0.5527,0.5529,0.5587,0.5588,0.5589,0.5589,0.5583,0.5582,0.5581,0.5554,0,0,0.5577,0.5576,0,0,0,0,0,0,0,0,0.5346,0.5358,0.5494,0.5498,0.5503,0.5549,0.5459,0.5533,0.5586,0.5556,0.5589,0.559,0.5563,0.5564,0.5576,0.5553,0.5553,0.5577,0.5576,0.5576,0.5575,0,0,0,0,0,0,0,0.5341,0.5354,0.5489,0.5495,0.55,0.5474,0.5487,0.5473,0.5553,0.5559,0.5563,0.5569,0.5565,0.5577,0.5576,0.5553,0.5577,0.5576,0.5575,0.5575,0.5582,0.5583,0,0,0,0,0,0,0.5338,0.5351,0.5487,0.5491,0.5424,0.5477,0.5491,0.5534,0.5555,0.5559,0.5568,0.5571,0.5578,0.5577,0.5576,0.5602,0.5576,0.5575,0.5574,0.5582,0.5583,0.5584,0,0,0,0,0,0,0.5334,0.5351,0.5484,0.5418,0.5434,0.548,0.5526,0.5534,0.5551,0.5562,0.5566,0.5577,0.5579,0.5577,0.5615,0.5599,0.5574,0.5573,0.558,0.5582,0.5583,0.5616,0,0,0,0,0,0,0.5329,0.535,0.5366,0.542,0.5438,0.5513,0.5526,0.5535,0.5552,0.5558,0.557,0.5571,0.558,0.5617,0.5614,0.5597,0.5572,0.5579,0.5581,0.5583,0.5614,0.5618,0.5622,0,0,0,0,0,0.5323,0.536,0.5368,0.5383,0.5465,0.5513,0.552,0.5554,0.5552,0.5569,0.5603,0.5571,0.5624,0.5618,0.5614,0.5596,0.5579,0.5581,0.5583,0.5612,0.5618,0.5622,0,0,0,0,0,0,0.5287,0.5371,0.538,0.5441,0.5473,0.5523,0.5541,0.5548,0.5585,0.559,0.5597,0.5601,0.5636,0.5611,0.5604,0.5606,0.5588,0.5589,0.5612,0.5617,0.5621,0.563,0.5571,0,0,0,0,0,0.5284,0.5331,0.5394,0.543,0.5458,0.5489,0.5506,0.5528,0.5569,0.5586,0.5596,0.5607,0.5637,0.5626,0.5654,0.5638,0.5648,0.5621,0.5625,0.5628,0.5635,0.5658,0.5665,0.559,0.559,0.559,0,0,0.5269,0.5322,0.5344,0.5422,0.5454,0.5478,0.5504,0.5541,0.5549,0.5575,0.5596,0.5637,0.5648,0.5672,0.5675,0.5643,0.5659,0.5631,0.5634,0.5638,0.5661,0.5668,0.5675,0.5592,0.5592,0.5591,0,0,0.5268,0.5326,0.5363,0.5393,0.5445,0.5469,0.5477,0.5531,0.5555,0.5582,0.5621,0.5672,0.5664,0.57,0.5707,0.574,0.5708,0.5715,0.5707,0.573,0.5736,0.5742,0.578,0.5789,0.5682,0.5683,0.5683,0,0.5249,0.5309,0.5372,0.5405,0.5426,0.5462,0.5486,0.5507,0.5557,0.5576,0.5591,0.5654,0.5684,0.5714,0.5753,0.5748,0.5755,0.5686,0.5735,0.5741,0.5746,0.5784,0.5793,0.5684,0.5684,0.5684,0.5684,0,0.5263,0.5306,0.5332,0.5387,0.5413,0.5446,0.5486,0.5507,0.5529,0.5548,0.5605,0.5672,0.57,0.5716,0.5753,0.5789,0.5785,0.5766,0.5721,0.5755,0.5794,0.5803,0.5687,0.5686,0.5686,0.5685,0,0,0.5239,0.5333,0.5333,0.5349,0.5413,0.5431,0.5458,0.55,0.5496,0.5549,0.5565,0.5664,0.5695,0.5711,0.5748,0.5778,0.5861,0.5784,0.5785,0.5822,0.5917,0.5828,0.583,0.5836,0.5837,0.5838,0.5935,0,0.5233,0.5288,0.5338,0.535,0.5382,0.5426,0.5435,0.5463,0.5495,0.5514,0.5587,0.5623,0.5683,0.5705,0.5754,0.5846,0.5882,0.5837,0.5879,0.5881,0.5797,0.5836,0.554,0.5592,0.5944,0.5945,0.5946,0,0.5218,0.5263,0.5296,0.5342,0.5359,0.5353,0.5377,0.5394,0.5435,0.5465,0.5512,0.5563,0.5658,0.5686,0.5831,0.5791,0.5867,0.5926,0.5929,0.5839,0.5808,0.5612,0.5595,0.5383,0.596,0.5959,0.5958,0,0.5149,0.5222,0.5246,0.526,0.5315,0.5319,0.5336,0.5367,0.5379,0.5425,0.5444,0.5533,0.5586,0.5689,0.5841,0.5833,0.5983,0.5973,0.5961,0.5957,0.571,0.568,0.5486,0.6064,0.6064,0.6063,0.6063,0,0.5124,0.5126,0.5204,0.5204,0.5194,0.5254,0.5238,0.5263,0.5302,0.5297,0.5404,0.5423,0.559,0.5695,0.5822,0.5921,0.5964,0.5978,0.5972,0.5715,0.5685,0.5494,0.544,0.6067,0.6066,0.6066,0.6065,0,0.5029,0.5091,0.5095,0.5151,0.5158,0.5132,0.5166,0.5159,0.5211,0.5212,0.5231,0.5358,0.5484,0.5648,0.5823,0.588,0.5812,0.6014,0.5714,0.5671,0.5431,0.5392,0.517,0.5045,0.6001,0.6,0.5998,0,0.4983,0.4987,0.5024,0.5012,0.5028,0.5022,0.5021,0.5084,0.5081,0.5157,0.515,0.5282,0.5364,0.5594,0.5685,0.5845,0.5719,0.5659,0.5594,0.5376,0.5331,0.5218,0.5122,0.5297,0.529,0.5284,0.5279,0,0.4879,0.4891,0.4906,0.4898,0.4885,0.4872,0.4877,0.4864,0.4928,0.4955,0.4996,0.5079,0.5265,0.528,0.5469,0.5528,0.5329,0.5546,0.5369,0.4806,0.4617,0.4505,0.5308,0.5228,0.5233,0.5237,0.524,0.5242,0.4779,0.4757,0.4784,0.4769,0.4753,0.4703,0.4629,0.4651,0.4632,0.4578,0.4775,0.4761,0.4861,0.5077,0.5125,0.4889,0.5025,0.4741,0.4736,0.4661,0.4437,0.5148,0.5028,0.5032,0.5035,0.5038,0.5041,0,0.4649,0.4666,0.4657,0.4613,0.4549,0.4578,0.4516,0.4399,0.4308,0.4312,0.4333,0.4263,0.4264,0.431,0.4211,0.4088,0.3983,0.3955,0.3678,0.3649,0.429,0.4149,0.3767,0.3768,0.3768,0.3768,0.3768,0.3769,0.4579,0.4537,0.4554,0.4429,0.4386,0.4189,0.4108,0.3954,0.3882,0.3658,0.3521,0.3569,0.366,0.3629,0.3421,0.3349,0.3133,0.3,0.3102,0.3475,0.3546,0.3613,0.3462,0.2942,0.2942,0.2268,0.2263,0.2258]},{"header":{"parameterUnit":"m.s-1","parameterCategory":2,"la1":30.2991,"la2":30.254,"lo1":-89.0895,"lo2":-89.0444,"dy":0.0017,"dx":0.0017,"nx":28,"ny":28,"refTime":"2025-12-10T03:00:00:Z","depth":"0","parameterNumber":3,"parameterNumberName":"V-component_of_CURRENTS"},"data":[0,0,0,0,0,0,0,0,0,0,0,0,0,0,0,0,0,0,0,0,0,0,0,0,0,0,0,0,0,0,0,0,0,0,0,0,0,0,0,0,0,0,0,0,0,0,0,0,0,0,0,0,0,0,0,0,0,0,-0.029,-0.0291,0,-0.0378,-0.0379,-0.038,-0.0418,-0.0418,-0.0418,-0.0418,-0.0474,-0.0476,-0.0477,0,0,0,0,0,0,0,0,0,0,0,0,0,-0.0225,-0.0225,-0.029,-0.0292,-0.0293,-0.0378,-0.0379,-0.038,-0.0418,-0.0418,-0.0418,-0.0418,-0.0474,-0.0476,-0.0477,0,0,0,0,0,0,0,0,0,0,0,0,0,-0.0276,-0.0226,-0.029,-0.0323,-0.0327,-0.0378,-0.0379,-0.038,-0.0418,-0.0418,-0.0418,-0.0418,-0.0473,-0.0475,-0.0478,-0.0493,0,0,-0.0485,-0.0486,0,0,0,0,0,0,0,0,-0.0273,-0.0278,-0.0317,-0.0321,-0.0325,-0.0388,-0.0377,-0.0417,-0.0418,-0.0383,-0.0418,-0.0418,-0.0443,-0.0448,-0.0464,-0.0495,-0.0498,-0.0485,-0.0486,-0.0487,-0.0488,0,0,0,0,0,0,0,-0.0269,-0.0275,-0.0324,-0.0318,-0.0323,-0.0357,-0.0363,-0.0385,-0.0411,-0.0386,-0.0389,-0.04,-0.0445,-0.0461,-0.0465,-0.0499,-0.0485,-0.0487,-0.0488,-0.0489,-0.0524,-0.0524,0,0,0,0,0,0,-0.0257,-0.0271,-0.0321,-0.0327,-0.0299,-0.0358,-0.0365,-0.0367,-0.0411,-0.0419,-0.04,-0.0402,-0.0458,-0.0462,-0.0467,-0.0441,-0.0487,-0.0489,-0.0491,-0.0525,-0.0524,-0.0524,0,0,0,0,0,0,-0.0255,-0.026,-0.0318,-0.0302,-0.0312,-0.0358,-0.0361,-0.0369,-0.0384,-0.0423,-0.0429,-0.0407,-0.0458,-0.0464,-0.0473,-0.0445,-0.049,-0.0493,-0.0525,-0.0524,-0.0524,-0.0417,0,0,0,0,0,0,-0.0252,-0.0259,-0.0256,-0.0301,-0.0313,-0.0338,-0.0361,-0.0371,-0.0391,-0.0394,-0.0431,-0.0436,-0.0458,-0.047,-0.0476,-0.0449,-0.0494,-0.0526,-0.0525,-0.0524,-0.0421,-0.0413,-0.0406,0,0,0,0,0,-0.025,-0.0245,-0.0255,-0.0261,-0.0307,-0.0338,-0.0346,-0.0379,-0.0392,-0.0393,-0.0413,-0.0435,-0.0469,-0.0471,-0.0478,-0.0451,-0.0526,-0.0525,-0.0524,-0.0425,-0.0415,-0.0406,0,0,0,0,0,0,-0.0223,-0.025,-0.0261,-0.0267,-0.0295,-0.0344,-0.0352,-0.0376,-0.0395,-0.0395,-0.0429,-0.0435,-0.0431,-0.0464,-0.0465,-0.0462,-0.0501,-0.0502,-0.0424,-0.0415,-0.0407,-0.0375,-0.0496,0,0,0,0,0,-0.0213,-0.0212,-0.0249,-0.0254,-0.0264,-0.0307,-0.0324,-0.0345,-0.0372,-0.0381,-0.0404,-0.0427,-0.0435,-0.0442,-0.046,-0.046,-0.0455,-0.0451,-0.0443,-0.0436,-0.0416,-0.0366,-0.0351,-0.052,-0.052,-0.052,0,0,-0.0206,-0.0221,-0.0222,-0.0248,-0.0272,-0.0279,-0.0316,-0.0337,-0.0335,-0.0383,-0.0382,-0.04,-0.043,-0.0422,-0.0424,-0.0444,-0.0389,-0.0435,-0.0428,-0.0412,-0.0363,-0.0346,-0.0331,-0.052,-0.052,-0.052,0,0,-0.0193,-0.0201,-0.0197,-0.0212,-0.0241,-0.026,-0.0262,-0.0301,-0.0307,-0.0316,-0.0337,-0.0329,-0.0369,-0.0361,-0.0368,-0.0333,-0.0348,-0.0353,-0.0285,-0.0237,-0.0221,-0.0208,-0.0187,-0.0172,-0.035,-0.035,-0.035,0,-0.0181,-0.018,-0.0202,-0.0203,-0.0208,-0.0245,-0.0241,-0.0253,-0.0288,-0.0274,-0.0303,-0.0303,-0.033,-0.0289,-0.0279,-0.0309,-0.0298,-0.0312,-0.0222,-0.0208,-0.0196,-0.0178,-0.0163,-0.0345,-0.0345,-0.0346,-0.0347,0,-0.0169,-0.0165,-0.0163,-0.0165,-0.0172,-0.0176,-0.0192,-0.0188,-0.0201,-0.0207,-0.0175,-0.0199,-0.0197,-0.0203,-0.0232,-0.016,-0.0186,-0.0211,-0.0234,-0.0171,-0.0158,-0.0144,-0.0337,-0.0339,-0.0341,-0.0342,0,0,-0.0142,-0.015,-0.0147,-0.0135,-0.0149,-0.015,-0.0132,-0.0116,-0.0086,-0.0099,-0.0049,-0.0055,-0.0061,-0.0069,-0.0093,-0.005,0.0037,-0.0092,-0.0092,-0.0051,0.0133,0.0091,0.0101,0.0033,0.0036,0.0039,0.0105,0,-0.0121,-0.0105,-0.0114,-0.0088,-0.0078,-0.0086,-0.0062,-0.0048,-0.004,0.0001,0.0013,0.0037,-0.0014,-0.0005,0.0035,0.0038,0.0079,0.002,0.0048,0.0048,0.0022,0.0118,0.0094,0.015,0.0118,0.0121,0.0122,0,-0.0099,-0.0089,-0.0064,-0.0034,-0.0028,-0.0016,0.0035,0.0049,0.0098,0.0108,0.0147,0.0143,0.0201,0.0144,0.0211,0.0175,0.0164,0.0167,0.0169,0.0108,0.0034,0.0081,0.0176,-0.001,0.0143,0.0142,0.014,0,-0.0064,-0.0044,-0.0017,-0.0013,0.0008,0.0032,0.0049,0.0088,0.0124,0.0181,0.0224,0.0269,0.0308,0.032,0.0304,0.0265,0.0383,0.0322,0.0278,0.0273,0.0248,0.0236,0.0187,0.0386,0.0385,0.0385,0.0385,0,-0.0033,-0.0008,0.0002,0.0015,0.0064,0.0067,0.0127,0.0149,0.0208,0.0288,0.0281,0.0366,0.0359,0.0409,0.037,0.038,0.0432,0.0324,0.0308,0.0278,0.0269,0.0098,-0.0002,0.0388,0.0387,0.0387,0.0386,0,-0.0005,-0.0001,0.0032,0.0061,0.0075,0.0108,0.0163,0.0217,0.0258,0.0367,0.0392,0.0467,0.0541,0.0522,0.0559,0.0473,0.0385,0.0456,0.0407,0.0384,0.0133,0.0041,0.0014,-0.0035,0.0418,0.0417,0.0417,0,0.0008,0.0025,0.006,0.0088,0.0099,0.0147,0.0191,0.0234,0.0302,0.0445,0.0521,0.0616,0.0736,0.0753,0.0633,0.0574,0.042,0.0446,0.0364,0.0147,0.0034,-0.0031,-0.0075,0.0367,0.0366,0.0366,0.0365,0,0.0035,0.0043,0.007,0.0124,0.0169,0.023,0.0301,0.0374,0.0464,0.0599,0.0796,0.0909,0.0901,0.0878,0.0734,0.0633,0.0302,0.043,0.0243,0.0034,-0.0071,-0.0136,0.0264,0.0361,0.0361,0.0361,0.0362,0.0362,0.005,0.0081,0.0118,0.0176,0.0235,0.0339,0.0445,0.0569,0.0747,0.1028,0.1047,0.1309,0.1088,0.0922,0.0713,0.0251,0.0296,0.0109,0.0031,-0.0005,-0.0094,0.0278,0.0325,0.0325,0.0326,0.0326,0.0326,0,0.0079,0.0121,0.0175,0.0264,0.0361,0.0378,0.0548,0.0715,0.1005,0.1267,0.1499,0.1544,0.126,0.0876,0.0261,-0.0075,-0.0202,-0.0275,-0.0384,-0.0395,-0.0029,-0.0079,-0.0162,-0.0162,-0.0162,-0.0162,-0.0162,-0.0161,0.0098,0.0159,0.02,0.0365,0.0449,0.0648,0.0784,0.1048,0.1289,0.1693,0.1897,0.1994,0.1616,0.0459,-0.0329,-0.0504,-0.073,-0.0777,-0.0855,-0.0661,-0.0633,-0.0606,-0.0678,-0.0885,-0.0885,-0.1189,-0.1193,-0.1196]}],[{"header":{"parameterUnit":"m.s-1","parameterCategory":2,"la1":30.2991,"la2":30.254,"lo1":-89.0895,"lo2":-89.0444,"dy":0.0017,"dx":0.0017,"nx":28,"ny":28,"refTime":"2025-12-10T03:00:00:Z","depth":"2","parameterNumber":2,"parameterNumberName":"U-component_of_CURRENTS"},"data":[0,0,0,0,0,0,0,0,0,0,0,0,0,0,0,0,0,0,0,0,0,0,0,0,0,0,0,0,0,0,0,0,0,0,0,0,0,0,0,0,0,0,0,0,0,0,0,0,0,0,0,0,0,0,0,0,0,0,0.1439,0.144,0,0.1491,0.1492,0.1493,0.1535,0.1536,0.1536,0.1537,0.1735,0.1739,0.1744,0,0,0,0,0,0,0,0,0,0,0,0,0,0.1385,0.1386,0.1439,0.144,0.144,0.1491,0.1492,0.1493,0.1535,0.1536,0.1536,0.1537,0.1733,0.1739,0.1744,0,0,0,0,0,0,0,0,0,0,0,0,0,0.142,0.1386,0.1439,0.1468,0.1471,0.1491,0.1492,0.1493,0.1535,0.1536,0.1536,0.1537,0.1731,0.1738,0.1745,0.1778,0,0,0.1768,0.1771,0,0,0,0,0,0,0,0,0.1418,0.1422,0.1463,0.1466,0.1469,0.1507,0.1546,0.1595,0.1535,0.1511,0.1537,0.1537,0.1672,0.1684,0.169,0.1787,0.1795,0.1768,0.1773,0.1776,0.1778,0,0,0,0,0,0,0,0.1416,0.142,0.146,0.1463,0.1467,0.1481,0.1487,0.1555,0.159,0.1513,0.1516,0.1521,0.1674,0.1683,0.1696,0.1798,0.1768,0.1775,0.1779,0.1782,0.1999,0.2001,0,0,0,0,0,0,0.1408,0.1418,0.1458,0.1462,0.1445,0.1481,0.1488,0.1495,0.1586,0.1599,0.1521,0.1523,0.167,0.1687,0.1703,0.1824,0.1776,0.1783,0.1787,0.1998,0.2,0.2001,0,0,0,0,0,0,0.1407,0.1411,0.1456,0.1441,0.1448,0.1482,0.1489,0.1495,0.1526,0.159,0.1607,0.1548,0.1671,0.1693,0.1767,0.1829,0.1786,0.1793,0.1996,0.1998,0.2,0.2016,0,0,0,0,0,0,0.1405,0.141,0.1429,0.144,0.1448,0.1487,0.1489,0.1496,0.1527,0.1531,0.1619,0.1636,0.1673,0.1756,0.1775,0.1838,0.1798,0.1994,0.1997,0.2,0.2014,0.2019,0.2023,0,0,0,0,0,0.1403,0.1419,0.1429,0.1435,0.1467,0.1488,0.1494,0.152,0.1528,0.1549,0.1593,0.1635,0.1787,0.1762,0.1784,0.1852,0.1993,0.1996,0.1999,0.2012,0.2018,0.2023,0,0,0,0,0,0,0.1451,0.1425,0.1437,0.1459,0.1481,0.1496,0.1522,0.1531,0.1579,0.1595,0.1645,0.1666,0.1756,0.1794,0.1765,0.1919,0.1901,0.1909,0.1903,0.1909,0.1914,0.194,0.1804,0,0,0,0,0,0.1458,0.1436,0.1451,0.1475,0.1487,0.1507,0.1525,0.154,0.1574,0.1596,0.1651,0.1717,0.1782,0.1834,0.1892,0.1978,0.2034,0.2036,0.2041,0.2044,0.2079,0.2198,0.2218,0.2011,0.2011,0.2011,0,0,0.1478,0.147,0.1459,0.1478,0.15,0.1527,0.1521,0.1554,0.1591,0.1614,0.1693,0.1734,0.1803,0.1889,0.1937,0.1935,0.2126,0.2048,0.2051,0.2085,0.2204,0.2224,0.2243,0.2013,0.2013,0.2013,0,0,0.1499,0.1511,0.1497,0.1517,0.1544,0.1558,0.1571,0.16,0.1632,0.1695,0.1723,0.1792,0.1893,0.1952,0.1995,0.2061,0.2135,0.2089,0.2154,0.2268,0.2287,0.2304,0.2374,0.2398,0.2104,0.2104,0.2104,0,0.1535,0.1528,0.1509,0.1527,0.1556,0.1574,0.1608,0.164,0.1692,0.1743,0.1731,0.1888,0.1929,0.2053,0.2068,0.2078,0.2143,0.2125,0.2276,0.2294,0.2312,0.238,0.2406,0.2105,0.2105,0.2105,0.2105,0,0.1531,0.1559,0.1569,0.158,0.1613,0.1646,0.1686,0.1738,0.1775,0.1817,0.1938,0.198,0.2089,0.2102,0.2109,0.2259,0.2263,0.2256,0.2264,0.2334,0.24,0.2427,0.2107,0.2106,0.2106,0.2106,0,0,0.1513,0.1552,0.1559,0.159,0.1647,0.1668,0.1754,0.1836,0.1904,0.1972,0.2081,0.2167,0.2207,0.2257,0.228,0.2366,0.251,0.2373,0.2378,0.2444,0.2758,0.26,0.2614,0.2544,0.255,0.2554,0.2744,0,0.1525,0.1563,0.1583,0.1651,0.1681,0.1748,0.1821,0.1906,0.1982,0.2091,0.2178,0.228,0.2263,0.232,0.2412,0.2491,0.2588,0.2459,0.268,0.2686,0.2541,0.2642,0.2454,0.2595,0.277,0.2774,0.2778,0,0.1502,0.1532,0.1597,0.1689,0.1712,0.1765,0.1898,0.1966,0.2127,0.2196,0.2335,0.2403,0.2558,0.2512,0.2734,0.2662,0.2731,0.2772,0.2781,0.2658,0.258,0.256,0.2637,0.2822,0.2819,0.2816,0.2813,0,0.1459,0.1541,0.1595,0.1624,0.1729,0.1797,0.1868,0.2012,0.2099,0.2284,0.2379,0.2556,0.2659,0.2795,0.2897,0.2846,0.312,0.3056,0.2981,0.297,0.2865,0.2833,0.3234,0.3234,0.3233,0.3233,0.3232,0,0.1443,0.1484,0.1583,0.1607,0.1689,0.1779,0.1901,0.1993,0.2167,0.2293,0.2439,0.2573,0.2743,0.2908,0.298,0.3073,0.3208,0.3029,0.3029,0.2856,0.2823,0.3062,0.3039,0.324,0.3238,0.3237,0.3236,0,0.1384,0.1452,0.1508,0.1623,0.1669,0.1726,0.1905,0.199,0.216,0.2337,0.2412,0.2642,0.2841,0.2988,0.3199,0.3158,0.3265,0.3265,0.302,0.2985,0.3011,0.2988,0.3195,0.3192,0.3189,0.3186,0.3184,0,0.1359,0.138,0.1491,0.153,0.1589,0.1703,0.1784,0.1966,0.2062,0.2372,0.2445,0.2707,0.2847,0.3079,0.3106,0.3208,0.328,0.3028,0.2868,0.3039,0.302,0.3,0.2981,0.2743,0.2738,0.2733,0.2729,0,0.1291,0.1333,0.1371,0.1458,0.1541,0.164,0.1772,0.1869,0.2098,0.2259,0.2504,0.2654,0.2851,0.2855,0.2927,0.295,0.2981,0.2928,0.3274,0.2735,0.2616,0.2593,0.2591,0.2689,0.2693,0.2696,0.2698,0.27,0.1228,0.1241,0.13,0.1398,0.1472,0.1583,0.17,0.1848,0.2027,0.2275,0.2402,0.2552,0.2593,0.2598,0.2584,0.2591,0.2747,0.2634,0.2649,0.2669,0.2536,0.2413,0.2424,0.2426,0.2428,0.243,0.2432,0,0.117,0.1209,0.125,0.136,0.1436,0.1526,0.1696,0.1791,0.2012,0.2141,0.2305,0.2142,0.2153,0.2256,0.2191,0.2149,0.2143,0.2082,0.2078,0.2121,0.2158,0.1998,0.1745,0.1742,0.174,0.1737,0,0,0.1138,0.1167,0.1217,0.1325,0.1428,0.1543,0.1678,0.178,0.1864,0.1933,0.1986,0.2081,0.2168,0.1902,0.1875,0.1815,0.1948,0.1757,0.2319,0.2358,0.2392,0.25,0.2303,0,0,0,0,0]},{"header":{"parameterUnit":"m.s-1","parameterCategory":2,"la1":30.2991,"la2":30.254,"lo1":-89.0895,"lo2":-89.0444,"dy":0.0017,"dx":0.0017,"nx":28,"ny":28,"refTime":"2025-12-10T03:00:00:Z","depth":"2","parameterNumber":3,"parameterNumberName":"V-component_of_CURRENTS"},"data":[0,0,0,0,0,0,0,0,0,0,0,0,0,0,0,0,0,0,0,0,0,0,0,0,0,0,0,0,0,0,0,0,0,0,0,0,0,0,0,0,0,0,0,0,0,0,0,0,0,0,0,0,0,0,0,0,0,0,-0.0142,-0.0144,0,-0.0268,-0.0269,-0.027,-0.0367,-0.0368,-0.0369,-0.0371,-0.0499,-0.0501,-0.0503,0,0,0,0,0,0,0,0,0,0,0,0,0,-0.0019,-0.002,-0.0142,-0.0144,-0.0146,-0.0268,-0.0269,-0.0271,-0.0367,-0.0368,-0.037,-0.0371,-0.0498,-0.0501,-0.0503,0,0,0,0,0,0,0,0,0,0,0,0,0,-0.0098,-0.0021,-0.0142,-0.0211,-0.0219,-0.0267,-0.0269,-0.0271,-0.0366,-0.0368,-0.037,-0.0372,-0.0497,-0.05,-0.0504,-0.0488,0,0,-0.0514,-0.0516,0,0,0,0,0,0,0,0,-0.0093,-0.0102,-0.0199,-0.0207,-0.0215,-0.0307,-0.0273,-0.0345,-0.0366,-0.0307,-0.0371,-0.0373,-0.0435,-0.0444,-0.0459,-0.0494,-0.05,-0.0514,-0.0516,-0.0518,-0.0519,0,0,0,0,0,0,0,-0.0088,-0.0097,-0.0189,-0.0201,-0.0211,-0.0248,-0.026,-0.0287,-0.0357,-0.0312,-0.032,-0.0339,-0.044,-0.0455,-0.0463,-0.0501,-0.0514,-0.0517,-0.0519,-0.0521,-0.0619,-0.0619,0,0,0,0,0,0,-0.0075,-0.0092,-0.0185,-0.0193,-0.0161,-0.0248,-0.0262,-0.0273,-0.0357,-0.0372,-0.0337,-0.0343,-0.0448,-0.0458,-0.0467,-0.0485,-0.0518,-0.0521,-0.0523,-0.0618,-0.0619,-0.0619,0,0,0,0,0,0,-0.0072,-0.0082,-0.018,-0.0148,-0.0164,-0.0249,-0.026,-0.0274,-0.0306,-0.0376,-0.0392,-0.0356,-0.045,-0.0463,-0.05,-0.049,-0.0523,-0.0526,-0.0618,-0.0618,-0.0619,-0.05,0,0,0,0,0,0,-0.0067,-0.0079,-0.0079,-0.0147,-0.0165,-0.0199,-0.0259,-0.0276,-0.0315,-0.0324,-0.0397,-0.041,-0.0453,-0.0494,-0.0503,-0.0495,-0.0528,-0.0617,-0.0618,-0.0619,-0.0503,-0.0497,-0.0491,0,0,0,0,0,-0.0062,-0.0052,-0.0078,-0.0089,-0.0163,-0.0198,-0.021,-0.0275,-0.0314,-0.0312,-0.0372,-0.0409,-0.0509,-0.0496,-0.0507,-0.05,-0.0616,-0.0618,-0.0619,-0.0506,-0.0498,-0.0491,0,0,0,0,0,0,-0.0003,-0.0063,-0.0093,-0.0103,-0.0144,-0.0216,-0.0226,-0.0271,-0.0317,-0.0333,-0.0401,-0.0417,-0.045,-0.0495,-0.0481,-0.0538,-0.0574,-0.0577,-0.0485,-0.0478,-0.0472,-0.0427,-0.0531,0,0,0,0,0,0.0014,0.0007,-0.0057,-0.0065,-0.0083,-0.0154,-0.0179,-0.0222,-0.0276,-0.03,-0.0354,-0.0417,-0.0459,-0.0484,-0.0529,-0.0546,-0.055,-0.0557,-0.0551,-0.0545,-0.052,-0.0515,-0.0504,-0.0624,-0.0624,-0.0624,0,0,0.0032,-0.0001,-0.0008,-0.0052,-0.0093,-0.0102,-0.0172,-0.0205,-0.0214,-0.0303,-0.0331,-0.0391,-0.0461,-0.0486,-0.0506,-0.0523,-0.0513,-0.0547,-0.054,-0.0518,-0.0515,-0.0503,-0.0492,-0.0624,-0.0624,-0.0624,0,0,0.0073,0.0039,0.0048,0.0023,-0.0031,-0.0068,-0.0075,-0.0145,-0.0176,-0.021,-0.0279,-0.0324,-0.04,-0.0435,-0.0466,-0.0452,-0.048,-0.049,-0.0417,-0.0412,-0.0401,-0.0391,-0.0364,-0.0352,-0.0487,-0.0486,-0.0486,0,0.0095,0.0098,0.0047,0.0049,0.0035,-0.0046,-0.0036,-0.007,-0.0145,-0.0152,-0.0208,-0.0299,-0.0368,-0.0375,-0.039,-0.0431,-0.0431,-0.043,-0.0397,-0.0388,-0.038,-0.0355,-0.0344,-0.0481,-0.0482,-0.0482,-0.0483,0,0.0146,0.0142,0.0147,0.0128,0.0112,0.0106,0.0053,0.0034,-0.0022,-0.006,-0.009,-0.0178,-0.0228,-0.027,-0.0332,-0.0315,-0.0333,-0.0383,-0.0399,-0.0359,-0.0337,-0.0328,-0.0473,-0.0475,-0.0477,-0.0478,0,0,0.0206,0.0187,0.0187,0.0197,0.0152,0.015,0.0146,0.0132,0.0149,0.0067,0.0096,-0.0014,-0.0064,-0.0103,-0.0181,-0.0194,-0.0153,-0.0265,-0.0268,-0.0206,-0.012,-0.0202,-0.02,-0.0196,-0.0195,-0.0193,-0.012,0,0.0259,0.0291,0.0264,0.0299,0.0312,0.0259,0.0276,0.0252,0.0217,0.023,0.0149,0.0134,0.0002,-0.0018,-0.0051,-0.0124,-0.0126,-0.0166,-0.0195,-0.0195,-0.0248,-0.0192,-0.02,-0.0143,-0.0111,-0.0109,-0.0108,0,0.0318,0.0334,0.0372,0.0397,0.04,0.0405,0.0429,0.0435,0.043,0.0408,0.0378,0.0318,0.0285,0.0166,0.0093,0.0072,-0.0012,-0.0073,-0.0072,-0.018,-0.0261,-0.0186,-0.0127,-0.0092,-0.0094,-0.0095,-0.0096,0,0.0391,0.0415,0.0451,0.0453,0.0463,0.0475,0.0483,0.0482,0.052,0.0529,0.0564,0.0503,0.0484,0.0384,0.0223,0.0167,0.0163,0.0072,-0.0066,-0.0071,-0.0099,-0.0111,0.0044,0.0044,0.0044,0.0044,0.0044,0,0.046,0.049,0.0484,0.0504,0.0574,0.0549,0.0628,0.0624,0.0665,0.0743,0.0661,0.0727,0.053,0.0488,0.033,0.0177,0.0248,-0.0022,-0.0054,-0.0062,-0.0071,-0.006,-0.0073,0.0047,0.0046,0.0045,0.0045,0,0.0523,0.0514,0.0569,0.0591,0.0602,0.0651,0.0718,0.0799,0.0801,0.0908,0.0923,0.0907,0.0837,0.0656,0.0511,0.0314,0.0183,0.011,0.0119,0.0084,-0.0077,-0.0085,-0.0026,-0.0028,-0.003,-0.0032,-0.0033,0,0.0555,0.0583,0.0637,0.0683,0.0687,0.0756,0.0832,0.0861,0.0946,0.1035,0.1114,0.1079,0.1073,0.0845,0.0512,0.0253,0.0215,0.0053,-0.0089,-0.0045,-0.0081,-0.0087,-0.0092,-0.0057,-0.0059,-0.006,-0.0061,0,0.0626,0.0635,0.0685,0.0774,0.0849,0.0967,0.1051,0.1128,0.1187,0.1306,0.1446,0.1456,0.1176,0.089,0.0464,0.028,0.0081,0.0014,0.011,-0.0071,-0.0078,-0.0114,-0.0117,-0.0071,-0.007,-0.0069,-0.0069,-0.0068,0.0675,0.0734,0.0789,0.0874,0.0981,0.1123,0.1233,0.135,0.1518,0.1618,0.1633,0.1609,0.1229,0.0653,0.0359,0.0013,-0.0002,-0.0156,-0.015,-0.0143,-0.0193,-0.0207,-0.023,-0.023,-0.0229,-0.0229,-0.0229,0,0.0736,0.0791,0.0888,0.1015,0.1159,0.1183,0.1359,0.1484,0.169,0.1718,0.1791,0.1429,0.1071,0.0691,0.0139,-0.0195,-0.0197,-0.0268,-0.0211,-0.0201,-0.0191,-0.0241,-0.0292,-0.0292,-0.0293,-0.0293,0,0,0.0774,0.0871,0.092,0.113,0.1227,0.144,0.154,0.1706,0.1753,0.1805,0.173,0.1548,0.1087,0.0672,0.0257,-0.0016,-0.0028,-0.0062,0.001,0.0132,0.0146,-0.0119,-0.0185,0,0,0,0,0]}],[{"header":{"parameterUnit":"m.s-1","parameterCategory":2,"la1":30.2991,"la2":30.254,"lo1":-89.0895,"lo2":-89.0444,"dy":0.0017,"dx":0.0017,"nx":28,"ny":28,"refTime":"2025-12-10T03:00:00:Z","depth":"4","parameterNumber":2,"parameterNumberName":"U-component_of_CURRENTS"},"data":[0,0,0,0,0,0,0,0,0,0,0,0,0,0,0,0,0,0,0,0,0,0,0,0,0,0,0,0,0,0,0,0,0,0,0,0,0,0,0,0,0,0,0,0,0,0,0,0,0,0,0,0,0,0,0,0,0,0,0.0491,0.0492,0,0.056,0.056,0.0561,0.0603,0.0603,0.0604,0.0604,0.0679,0.0681,0.0683,0,0,0,0,0,0,0,0,0,0,0,0,0,0.0403,0.0404,0.0491,0.0492,0.0493,0.0559,0.056,0.0561,0.0603,0.0603,0.0604,0.0604,0.0679,0.0681,0.0683,0,0,0,0,0,0,0,0,0,0,0,0,0,0.0453,0.0404,0.0491,0.0522,0.0525,0.0559,0.056,0.0561,0.0603,0.0603,0.0604,0.0604,0.0678,0.0681,0.0683,0.0693,0,0,0.0691,0.0693,0,0,0,0,0,0,0,0,0.045,0.0456,0.0516,0.052,0.0524,0.0573,0.0557,0.0606,0.0603,0.0573,0.0604,0.0604,0.0644,0.065,0.0661,0.0696,0.0699,0.0692,0.0693,0.0694,0.0695,0,0,0,0,0,0,0,0.0446,0.0453,0.0518,0.0517,0.0522,0.0535,0.0542,0.0566,0.0606,0.0576,0.0579,0.0587,0.0646,0.0659,0.0664,0.07,0.0692,0.0694,0.0696,0.0697,0.0758,0.0758,0,0,0,0,0,0,0.0438,0.045,0.0516,0.052,0.0487,0.0536,0.0544,0.0557,0.0606,0.0613,0.0587,0.0589,0.0654,0.066,0.0666,0.0731,0.0694,0.0697,0.0698,0.0758,0.0758,0.0758,0,0,0,0,0,0,0.0436,0.0443,0.0513,0.0486,0.0496,0.0537,0.0551,0.0558,0.0594,0.0614,0.0622,0.0618,0.0655,0.0663,0.0696,0.0733,0.0698,0.0701,0.0758,0.0758,0.0758,0.0828,0,0,0,0,0,0,0.0433,0.0442,0.0456,0.0486,0.0497,0.0549,0.0551,0.0559,0.0597,0.0601,0.0643,0.0649,0.0655,0.0692,0.0699,0.0736,0.0703,0.0758,0.0758,0.0758,0.0826,0.0831,0.0835,0,0,0,0,0,0.043,0.0443,0.0456,0.0465,0.0513,0.055,0.0558,0.0587,0.0598,0.062,0.0637,0.0649,0.0697,0.0695,0.0703,0.0741,0.0758,0.0758,0.0758,0.0824,0.083,0.0835,0,0,0,0,0,0,0.0411,0.0449,0.0465,0.0489,0.0526,0.0558,0.0581,0.0601,0.0633,0.0641,0.0656,0.0664,0.071,0.0703,0.07,0.0752,0.0727,0.0728,0.0774,0.078,0.0784,0.0795,0.0705,0,0,0,0,0,0.0413,0.0437,0.0474,0.0498,0.0517,0.0555,0.0576,0.0599,0.0627,0.0644,0.0671,0.0689,0.0712,0.0728,0.0748,0.0779,0.0782,0.0801,0.0806,0.081,0.0821,0.0857,0.0867,0.0758,0.0758,0.0758,0,0,0.0412,0.0437,0.0451,0.0497,0.0528,0.0561,0.057,0.0612,0.0646,0.0646,0.0702,0.0717,0.0724,0.0762,0.078,0.0764,0.0839,0.081,0.0814,0.0823,0.0859,0.087,0.0879,0.0758,0.0758,0.0758,0,0,0.0419,0.0448,0.0472,0.0505,0.0555,0.0579,0.0597,0.0645,0.0676,0.072,0.073,0.0761,0.0796,0.0811,0.082,0.0855,0.0867,0.0861,0.0896,0.0932,0.0942,0.0951,0.0961,0.097,0.0857,0.0857,0.0857,0,0.0416,0.0453,0.0485,0.0519,0.0549,0.059,0.0625,0.0662,0.0715,0.0746,0.0744,0.0812,0.082,0.0869,0.0877,0.0872,0.0885,0.0883,0.0942,0.0951,0.0959,0.0966,0.0976,0.0861,0.086,0.086,0.086,0,0.0443,0.0478,0.0497,0.0553,0.0589,0.0627,0.0678,0.0723,0.076,0.0797,0.0866,0.088,0.0921,0.0924,0.0914,0.0976,0.0964,0.0953,0.0938,0.0975,0.0979,0.0988,0.0866,0.0864,0.0863,0.0863,0,0,0.0416,0.0498,0.0507,0.054,0.0611,0.0642,0.0705,0.0772,0.0827,0.0876,0.0942,0.0978,0.1004,0.1013,0.1017,0.1037,0.1096,0.1022,0.1023,0.1048,0.1169,0.1111,0.1114,0.1109,0.1111,0.1112,0.1146,0,0.0429,0.049,0.0532,0.0594,0.0628,0.0686,0.0744,0.0812,0.0874,0.0948,0.0984,0.1054,0.1035,0.1071,0.1091,0.11,0.1124,0.1087,0.1114,0.1114,0.1073,0.1124,0.1119,0.1152,0.1154,0.1156,0.1157,0,0.044,0.048,0.054,0.0621,0.0644,0.0689,0.0791,0.0856,0.0963,0.1013,0.1088,0.1134,0.119,0.1165,0.1212,0.1195,0.1194,0.1188,0.1189,0.1119,0.1074,0.1107,0.1172,0.1171,0.117,0.1169,0.1168,0,0.0402,0.0485,0.0532,0.056,0.0656,0.07,0.0766,0.0877,0.0955,0.1077,0.1141,0.1214,0.1269,0.1282,0.1287,0.1264,0.1325,0.1287,0.1232,0.1226,0.1238,0.1228,0.133,0.133,0.133,0.133,0.133,0,0.0393,0.0428,0.0521,0.0543,0.0613,0.0694,0.0795,0.087,0.1002,0.1095,0.1186,0.1252,0.1309,0.1353,0.1327,0.1312,0.1365,0.1254,0.1243,0.1261,0.1254,0.1243,0.1233,0.1331,0.1331,0.1331,0.1331,0,0.0341,0.0405,0.0454,0.0554,0.0595,0.0649,0.0809,0.0883,0.1017,0.114,0.1191,0.1311,0.1354,0.139,0.1413,0.1369,0.1353,0.1336,0.136,0.1347,0.1213,0.1205,0.1266,0.1265,0.1264,0.1263,0.1262,0,0.0322,0.0342,0.0443,0.0487,0.0536,0.0642,0.0717,0.087,0.095,0.1152,0.1187,0.131,0.1365,0.1351,0.1376,0.1353,0.1332,0.1336,0.1266,0.1229,0.1212,0.1207,0.1201,0.126,0.1259,0.1259,0.1259,0,0.0261,0.0298,0.0337,0.0433,0.0509,0.0605,0.072,0.0775,0.0955,0.1082,0.1182,0.1245,0.1292,0.1299,0.1322,0.1289,0.1338,0.1322,0.1323,0.1257,0.1222,0.1205,0.1201,0.1254,0.1255,0.1255,0.1256,0,0.021,0.0223,0.0285,0.0372,0.0461,0.054,0.0619,0.0725,0.0832,0.1049,0.1067,0.1176,0.1275,0.1266,0.1264,0.1259,0.1218,0.1183,0.119,0.1196,0.1157,0.1101,0.1104,0,0,0,0,0,0.0158,0.0177,0.0233,0.0319,0.0405,0.0464,0.0607,0.069,0.0849,0.0897,0.0997,0.1038,0.1098,0.1137,0.1107,0.1191,0.1195,0.1154,0.1152,0.123,0.1235,0.1196,0,0,0,0,0,0,0.0128,0.0161,0.0197,0.0255,0.0303,0.0397,0.048,0.0594,0.0633,0.0797,0.0814,0.0965,0.0998,0.1077,0.1073,0.1089,0.107,0.1224,0.1223,0.1227,0.1232,0.1236,0.1198,0,0,0,0,0]},{"header":{"parameterUnit":"m.s-1","parameterCategory":2,"la1":30.2991,"la2":30.254,"lo1":-89.0895,"lo2":-89.0444,"dy":0.0017,"dx":0.0017,"nx":28,"ny":28,"refTime":"2025-12-10T03:00:00:Z","depth":"4","parameterNumber":3,"parameterNumberName":"V-component_of_CURRENTS"},"data":[0,0,0,0,0,0,0,0,0,0,0,0,0,0,0,0,0,0,0,0,0,0,0,0,0,0,0,0,0,0,0,0,0,0,0,0,0,0,0,0,0,0,0,0,0,0,0,0,0,0,0,0,0,0,0,0,0,0,0.0407,0.0407,0,0.0356,0.0355,0.0355,0.0334,0.0335,0.0335,0.0335,0.0216,0.0212,0.0209,0,0,0,0,0,0,0,0,0,0,0,0,0,0.0423,0.0423,0.0407,0.0407,0.0406,0.0356,0.0355,0.0354,0.0334,0.0335,0.0335,0.0336,0.0217,0.0213,0.0209,0,0,0,0,0,0,0,0,0,0,0,0,0,0.0397,0.0423,0.0407,0.0392,0.039,0.0356,0.0355,0.0354,0.0334,0.0335,0.0335,0.0336,0.0218,0.0213,0.0208,0.0166,0,0,0.0192,0.019,0,0,0,0,0,0,0,0,0.0398,0.0396,0.0394,0.0393,0.0391,0.0354,0.0317,0.0289,0.0334,0.0353,0.0335,0.0336,0.0257,0.0248,0.0236,0.016,0.0155,0.0192,0.0188,0.0186,0.0185,0,0,0,0,0,0,0,0.04,0.0398,0.0385,0.0394,0.0392,0.0366,0.0363,0.0312,0.03,0.0352,0.0351,0.0348,0.0255,0.0241,0.0233,0.0154,0.0192,0.0187,0.0184,0.0182,0.0108,0.0109,0,0,0,0,0,0,0.0414,0.04,0.0386,0.0383,0.0398,0.0365,0.0362,0.0364,0.0302,0.0294,0.0348,0.0347,0.025,0.0239,0.0228,0.0211,0.0186,0.0181,0.0178,0.0107,0.0108,0.011,0,0,0,0,0,0,0.0414,0.0413,0.0388,0.0392,0.0387,0.0365,0.0367,0.0362,0.0353,0.03,0.0291,0.0344,0.0249,0.0235,0.0216,0.0205,0.0179,0.0174,0.0106,0.0107,0.0109,0.0153,0,0,0,0,0,0,0.0415,0.0414,0.0421,0.0393,0.0388,0.0376,0.0366,0.0361,0.0352,0.0351,0.0293,0.0283,0.0249,0.0224,0.0211,0.0197,0.017,0.0104,0.0106,0.0109,0.015,0.0156,0.0161,0,0,0,0,0,0.0416,0.0421,0.0421,0.042,0.0398,0.0377,0.0371,0.0355,0.0351,0.0348,0.0331,0.0285,0.0228,0.0221,0.0205,0.0189,0.0103,0.0106,0.0108,0.0147,0.0154,0.0161,0,0,0,0,0,0,0.0427,0.0419,0.0419,0.0421,0.0406,0.0375,0.037,0.0358,0.034,0.0341,0.0295,0.0284,0.0261,0.0229,0.0222,0.0181,0.0158,0.0158,0.0194,0.02,0.0205,0.0198,0.0166,0,0,0,0,0,0.0435,0.0441,0.0424,0.0426,0.042,0.0396,0.0387,0.0376,0.0356,0.0348,0.0316,0.0286,0.0257,0.0235,0.0204,0.0174,0.0121,0.0158,0.0163,0.0168,0.0155,0.0075,0.0071,0.0118,0.0118,0.0118,0,0,0.0439,0.0436,0.0439,0.0429,0.0415,0.0409,0.0391,0.0379,0.0376,0.0335,0.0325,0.0299,0.0257,0.0235,0.022,0.0206,0.0133,0.0171,0.0175,0.0159,0.0077,0.0072,0.0068,0.012,0.012,0.012,0,0,0.0446,0.0448,0.0454,0.0446,0.0434,0.042,0.042,0.0396,0.039,0.0378,0.0355,0.033,0.0285,0.0254,0.0231,0.0246,0.0168,0.024,0.0249,0.0172,0.0167,0.0161,0.0106,0.0095,0.0238,0.0239,0.0239,0,0.0451,0.0461,0.045,0.0452,0.0451,0.0429,0.0431,0.0416,0.0393,0.0382,0.0385,0.0322,0.029,0.0247,0.0265,0.0251,0.0205,0.0223,0.0175,0.0169,0.0162,0.0107,0.0094,0.0241,0.0241,0.024,0.024,0,0.0461,0.0471,0.0472,0.0474,0.0468,0.0466,0.045,0.0442,0.0435,0.0413,0.0381,0.0346,0.0304,0.0296,0.0284,0.0227,0.021,0.0192,0.0151,0.0159,0.0102,0.0088,0.0244,0.0243,0.0243,0.0242,0,0,0.0469,0.0479,0.0483,0.0491,0.0483,0.0478,0.0474,0.0456,0.0442,0.0419,0.0389,0.0356,0.0328,0.0303,0.0276,0.0217,0.0146,0.0191,0.0186,0.0124,-0.0015,0.0013,-0.0,0.0113,0.011,0.0108,-0.003,0,0.0483,0.0505,0.0503,0.0516,0.0523,0.0507,0.0505,0.0483,0.0459,0.0423,0.0373,0.034,0.0333,0.0315,0.0253,0.0166,0.0107,0.0185,-0.0003,-0.0008,0.0003,-0.0017,0.01,-0.0041,-0.0045,-0.0047,-0.0049,0,0.0496,0.0512,0.0539,0.0544,0.0545,0.0551,0.0536,0.0531,0.0473,0.0448,0.0393,0.0349,0.0271,0.0266,0.0104,0.0153,0.0076,0.001,0.0002,-0.0004,-0.0008,-0.0055,-0.0076,-0.0074,-0.0072,-0.007,-0.0068,0,0.0515,0.0533,0.0564,0.0568,0.057,0.0578,0.0579,0.0542,0.0536,0.0462,0.0432,0.0329,0.0276,0.0157,0.0043,0.0061,-0.0146,-0.0143,-0.0192,-0.0191,-0.0196,-0.0189,-0.0267,-0.0267,-0.0267,-0.0266,-0.0266,0,0.0528,0.0547,0.058,0.0594,0.0624,0.0612,0.0625,0.06,0.056,0.0542,0.0454,0.0399,0.0243,0.0118,0.0016,-0.0133,-0.0173,-0.0205,-0.0234,-0.0168,-0.0156,-0.0205,-0.0196,-0.0271,-0.027,-0.0269,-0.0268,0,0.0534,0.0559,0.0594,0.0622,0.0636,0.066,0.0678,0.0667,0.0631,0.0598,0.0578,0.0431,0.0265,0.0111,-0.0099,-0.016,-0.0307,-0.0346,-0.026,-0.028,-0.0293,-0.0279,-0.0425,-0.0425,-0.0426,-0.0426,-0.0426,0,0.0537,0.0561,0.0626,0.0659,0.0678,0.0715,0.0728,0.071,0.0692,0.0621,0.0585,0.0431,0.0326,0.0043,-0.0122,-0.0336,-0.0347,-0.0412,-0.0352,-0.03,-0.0314,-0.03,-0.0287,-0.0427,-0.0427,-0.0427,-0.0427,0,0.0535,0.0571,0.0603,0.0682,0.0719,0.0758,0.0773,0.0767,0.0736,0.0704,0.0597,0.0463,0.0263,0.0048,-0.0123,-0.0269,-0.0367,-0.0416,-0.0415,-0.036,-0.0304,-0.0314,-0.0301,-0.0428,-0.0428,-0.0428,-0.0428,0,0.0535,0.0565,0.0623,0.0686,0.0746,0.0783,0.0793,0.0765,0.0752,0.0676,0.0637,0.0444,0.0322,0.0079,-0.0081,-0.0224,-0.0244,-0.0255,-0.0263,-0.0264,-0.0163,-0.0066,-0.0157,0,0,0,0,0,0.0526,0.0558,0.0617,0.0685,0.0749,0.08,0.0805,0.0799,0.0771,0.0713,0.0687,0.0516,0.0276,0.0135,-0.0004,-0.0093,-0.0279,-0.0257,-0.0296,-0.0434,-0.0433,-0.0339,0,0,0,0,0,0,0.0518,0.0571,0.0604,0.0674,0.074,0.0802,0.0828,0.0812,0.0763,0.0723,0.0572,0.0525,0.0253,0.0372,0.0011,-0.0039,-0.0072,-0.038,-0.0382,-0.0435,-0.0434,-0.0433,-0.0335,0,0,0,0,0]}]]